FW3795 Weather Reports


time (UTC)temp
F
wind
direction
speed
knots
gust
knots
rain 1hr
in
rain 24hr
in
rain mn
in
humidity
%
barometer
mb
20260504050007 49 185 0.0 0.0 0.00 0.00 0.00 56 1009.5
20260504044504 49 185 0.9 5.2 0.00 0.00 0.00 54 1009.4
20260504043002 49 243 0.9 3.5 0.00 0.00 0.00 56 1009.7
20260504041602 49 238 0.9 2.6 0.00 0.00 0.00 55 1009.7
20260504040055 50 244 0.0 0.0 0.00 0.00 0.00 54 1009.8
20260504034554 50 244 0.0 1.7 0.00 0.00 0.00 52 1009.7
20260504033054 51 244 0.9 2.6 0.00 0.00 0.00 50 1009.8
20260504031554 52 244 0.0 0.9 0.00 0.00 0.00 47 1009.8
20260504030054 53 244 0.9 3.5 0.00 0.00 0.00 46 1009.9
20260504024608 53 220 2.6 6.1 0.00 0.00 0.00 44 1010.0
20260504023053 53 209 1.7 3.5 0.00 0.00 0.00 43 1010.3
20260504021552 54 221 2.6 6.1 0.00 0.00 0.00 42 1010.3
20260504020051 54 242 0.9 4.3 0.00 0.00 0.00 42 1010.4
20260504014556 54 209 0.9 6.1 0.00 0.00 0.00 41 1010.6
20260504013054 55 228 0.9 7.8 0.00 0.00 0.00 40 1010.6
20260504011551 55 250 3.5 9.6 0.00 0.00 0.00 38 1010.5
20260504010049 55 221 5.2 10.4 0.00 0.00 0.00 38 1010.4
20260504004549 55 264 10.4 17.4 0.00 0.00 0.00 37 1010.3
20260504003053 55 257 6.1 20.0 0.00 0.00 0.00 37 1010.2
20260504001549 56 272 11.3 20.9 0.00 0.00 0.00 35 1010.3
20260504000113 56 278 15.6 20.9 0.00 0.00 0.00 34 1010.1
20260503234553 57 305 15.6 27.8 0.00 0.00 0.00 34 1009.9
20260503233045 57 303 15.6 26.1 0.00 0.00 0.00 34 1009.7
20260503231545 57 248 7.0 15.6 0.00 0.00 0.00 34 1009.8
20260503230050 57 268 9.6 18.2 0.00 0.00 0.00 34 1009.7
20260503224544 57 262 15.6 21.7 0.00 0.00 0.00 34 1009.7
20260503223042 57 282 13.0 25.2 0.00 0.00 0.00 34 1009.6
20260503221549 57 300 8.7 12.2 0.00 0.00 0.00 37 1009.4
20260503220041 57 282 8.7 12.2 0.00 0.00 0.00 38 1009.4
20260503214543 56 266 12.2 16.5 0.00 0.00 0.00 37 1009.5
20260503213040 56 238 7.8 17.4 0.00 0.00 0.00 37 1009.6
20260503211539 56 249 6.1 14.8 0.00 0.00 0.00 39 1009.6
20260503210037 57 229 6.1 13.0 0.00 0.00 0.00 38 1009.7
20260503204533 56 246 10.4 17.4 0.00 0.00 0.00 39 1009.8
20260503203040 55 205 5.2 10.4 0.00 0.00 0.00 39 1010.1
20260503201534 54 273 7.0 12.2 0.00 0.00 0.00 40 1010.2
20260503200027 54 267 7.0 15.6 0.00 0.00 0.00 41 1010.4
20260503194526 54 291 7.8 16.5 0.00 0.00 0.00 40 1010.5
20260503193024 53 263 9.6 18.2 0.00 0.00 0.00 40 1010.9
20260503191522 53 211 7.8 13.9 0.00 0.00 0.00 41 1011.1
20260503190020 53 290 13.9 20.9 0.00 0.00 0.00 41 1011.4
20260503184522 53 296 11.3 20.9 0.00 0.00 0.00 39 1011.4
20260503183018 54 312 7.8 15.6 0.00 0.00 0.00 42 1011.4
20260503181517 53 295 12.2 26.9 0.00 0.00 0.00 41 1011.6
20260503180025 53 321 13.0 21.7 0.00 0.00 0.00 40 1011.7
20260503174516 53 257 9.6 19.1 0.00 0.00 0.00 41 1011.8
20260503173018 53 271 13.0 20.9 0.00 0.00 0.00 41 1011.9
20260503171509 52 306 11.3 17.4 0.00 0.00 0.00 40 1012.1
20260503081521 38 278 8.7 12.2 0.00 0.00 0.00 70 1013.6
20260503071507 39 263 3.5 6.1 0.00 0.00 0.00 68 1013.4
20260503060111 39 242 0.9 4.3 0.00 0.00 0.00 69 1013.8
20260503054610 39 240 1.7 6.1 0.00 0.00 0.00 69 1013.9
20260503053056 39 220 1.7 4.3 0.00 0.00 0.00 68 1014.0